STARLINK-30988, 58529

Orbit data source: Space-Track

STARLINK-30988, 58529 is a payload satellite owned by SpaceX/Seattle (US) in LEO that was launched on Thu, 07 Dec 2023 UTC via an FALCON 9 launch vehicle from the Air Force Eastern Test Range (AFETR). Payload-class satellites include a variety of spacecraft equipped with specific instruments for various scientific and technological missions. These include communications satellites like Starlink; space stations such as the ISS; scientific satellites like the Hubble; Earth observation satellites from companies like Planet Labs, Umbra, and HawkEye 360; GPS; miniature CubeSats for education and research; and military/defense satellites.

Loading next visibility...
Identifier
58529, 2023-191X
Orbit
LEO
Country
Flag of USUS
Related business
Manufacturer
SpaceX/Seattle
Mission
Operational Commercial Communications
Bus & Motor
STARLINK V2M, Unknown motor
Mass
730 kg wet, ~700 kg dry
Launch date (UTC)
2023-12-07 (3 years ago)
Launch vehicle
FALCON 9
Launch site
Air Force Eastern Test Range (AFETR)
Object type
Payload
Rocket body
Debris
Shape & HBR
Box + 2 Pan, 17.7 m
Radar Cross Section
33.884 m², Large (>1 m²)

Expand to show TLE details & history
Last TLE update: 3 days ago

TLE from 3 days ago
0 STARLINK-30988
1 58529U 23191X   26170.50594573  .00003066  00000-0  12088-3 0  9996
2 58529  42.9988 248.3513 0000917 280.6797  79.3952 15.27582018141047
Epoch: 2026-06-19T12:08Z
TLE epoch observation values (Epoch: 2026-06-19T12:08:33.711Z)
Latitude
0.00004°
Longitude
158.47694°
Altitude
482.703 km
Speed
7.626 km/s
True Right ascension
16h 33m 24s
True Declination
0° 00' 00"
Sunlit
Object was in full shadow at epoch
Visualization orbit readout
Latitude
Unknown
Longitude
Unknown
Altitude
Unknown
Speed
Unknown
Apparent Right ascension
Unknown
Apparent Declination
Unknown
Sunlit
N/A
Visualization observer readout
Local Sidereal Time
21:28:59
Azimuth
Unknown
Elevation
Unknown
Doppler factor
Unknown
Orbital elements
Apogee altitude
485.618 km
Perigee altitude
484.359 km
Semi-major axis
6,863.125 km
Eccentricity
0.00009
Inclination
42.9988°
RAAN
248.3513°
Arg. of periapsis
280.6797°
True anomaly
79.40553°
Mean anomaly
79.3952°
Eccentric anomaly
79.40036°
Mean motion
3.81733 °/min
Orbital period
94.31 mins
BSTAR
0.00012088
Loading maneuver chart data...
Computing Atmospheric mass density...
Loading historical data...
Loading historical data...
Loading historical data...
Loading historical data...
Loading historical data...
Loading historical data...
Loading historical data...

Documentation

Showing up to 5 results
|